Waarnemingen

Advertentie
Mijn weer
Leuchars, Groot Brittannië (3171): temperatuur & dauwpunt: 11.02.2019 12:00:00 - 17.02.2019 12:00:00 (GMT)Leuchars, Groot Brittannië (3171): temperatuur -20cm & temperatuur -100cm: 11.02.2019 12:00:00 - 17.02.2019 12:00:00 (GMT)Leuchars, Groot Brittannië (3171): windsnelheid & windstoten: 11.02.2019 12:00:00 - 17.02.2019 12:00:00 (GMT)Leuchars, Groot Brittannië (3171): windrichting: 11.02.2019 12:00:00 - 17.02.2019 12:00:00 (GMT)Leuchars, Groot Brittannië (3171): luchtdruk: 11.02.2019 12:00:00 - 17.02.2019 12:00:00 (GMT)Leuchars, Groot Brittannië (3171): zicht: 11.02.2019 12:00:00 - 17.02.2019 12:00:00 (GMT)Leuchars, Groot Brittannië (3171): Zonneschijnduur: 11.02.2019 12:00:00 - 17.02.2019 12:00:00 (GMT)Leuchars, Groot Brittannië (3171): neerslag: 11.02.2019 12:00:00 - 17.02.2019 12:00:00 (GMT)
Datum & Tijd tt [°C] td [°C] tt -20cm [°C] tt -100cm [°C] ff [km/u] ff [kn] fx [km/u] fx [kn] dd ppp [hPa] vv [km] sd [min] rr [mm]
17.02.2019 12:00:00 12,0 5,9 - - 26 14 - - ZZW 1003,0 25 0 -
17.02.2019 11:00:00 9,9 5,6 - - 8 4 - - Z 1003,6 24 0 -
17.02.2019 10:00:00 9,1 5,1 - - 5 3 - - ZZW 1004,4 30 0 0,0
17.02.2019 09:00:00 8,4 5,6 5,4 5,5 15 8 - - O 1005,1 10 0 0,0
17.02.2019 08:00:00 9,0 5,8 - - 16 9 - - OZO 1005,3 21 0 0,0
17.02.2019 07:00:00 8,3 5,5 - - 11 6 - - ZO 1006,0 16 0 0,0
17.02.2019 06:00:00 10,3 6,5 - - 11 6 - - ZO 1006,6 10 0 0,0
17.02.2019 05:00:00 10,2 6,6 - - 28 15 50 27 WZW 1006,7 20 0 0,0
17.02.2019 04:00:00 10,1 6,7 - - 16 9 - - ZZW 1007,3 20 0 0,0
17.02.2019 03:00:00 11,3 7,3 - - 24 13 57 31 ZW 1008,0 10 0 0,0
17.02.2019 02:00:00 11,4 7,9 - - 28 15 48 26 ZZW 1008,4 10 0 0,0
17.02.2019 01:00:00 10,4 8,0 - - 22 12 - - ZZW 1008,7 26 0 0,0
17.02.2019 00:00:00 9,0 6,6 - - 18 10 - - ZZO 1009,4 10 - 0,0
16.02.2019 23:00:00 8,4 5,2 - - 8 4 - - ZZO 1010,4 10 0 0,0
16.02.2019 22:00:00 7,6 4,8 - - 4 2 - - ONO 1011,0 10 0 0,0
16.02.2019 21:00:00 7,6 4,5 - - 11 6 - - WZW 1011,6 10 0 0,0
16.02.2019 20:00:00 8,2 4,9 - - 18 10 - - ZZW 1011,6 26 0 0,0
16.02.2019 19:00:00 8,8 5,2 - - 22 12 - - ZZW 1012,1 10 0 0,0
16.02.2019 18:00:00 9,0 5,3 - - 21 11 - - ZZW 1012,5 45 0 0,0
16.02.2019 17:00:00 9,7 5,2 - - 21 11 - - ZZW 1012,5 45 0 0,0
16.02.2019 16:00:00 10,1 5,3 - - 8 4 - - ZW 1012,8 45 6 0,0
16.02.2019 15:00:00 10,3 4,9 - - 11 6 - - WZW 1013,1 35 18 0,0
16.02.2019 14:00:00 10,3 4,5 - - 29 16 - - WZW 1013,3 30 6 0,0
16.02.2019 13:00:00 10,5 5,6 - - 26 14 - - WZW 1013,3 50 0 0,0
16.02.2019 12:00:00 10,2 6,3 - - 26 14 - - WZW 1013,2 40 0 0,0
16.02.2019 11:00:00 9,6 6,2 - - 26 14 - - W 1013,0 45 0 0,0
16.02.2019 10:00:00 9,1 6,4 - - 29 16 - - WZW 1012,7 10 0 0,0
16.02.2019 09:00:00 9,4 6,3 5,0 5,4 26 14 - - WZW 1012,5 40 0 0,0
16.02.2019 08:00:00 8,4 6,3 - - 15 8 - - WZW 1012,2 35 0 0,0
16.02.2019 07:00:00 9,4 6,1 - - 18 10 - - WZW 1011,8 35 0 0,0
16.02.2019 06:00:00 8,6 6,2 - - 15 8 - - WZW 1011,6 30 0 0,0
16.02.2019 05:00:00 9,6 6,5 - - 21 11 - - WZW 1011,2 25 0 0,0
16.02.2019 04:00:00 9,9 6,5 - - 24 13 46 25 WZW 1010,7 16 0 0,0
16.02.2019 03:00:00 10,3 6,6 - - 28 15 50 27 WZW 1010,7 21 0 0,0
16.02.2019 02:00:00 10,2 7,2 - - 29 16 - - WZW 1010,6 22 0 0,0
16.02.2019 01:00:00 9,8 7,3 - - 26 14 54 29 ZW 1010,6 10 0 0,0
16.02.2019 00:00:00 10,6 7,5 - - 39 21 55 30 WZW 1010,7 10 - 0,0
15.02.2019 23:00:00 11,0 7,4 - - 26 14 - - ZW 1010,6 10 0 0,0
15.02.2019 22:00:00 10,2 6,0 - - 24 13 - - WZW 1011,4 19 0 0,0
15.02.2019 21:00:00 8,5 4,4 - - 18 10 - - ZW 1012,1 18 0 0,0
15.02.2019 20:00:00 9,4 4,3 - - 26 14 48 26 WZW 1013,2 20 0 0,0
15.02.2019 19:00:00 9,4 4,3 - - 13 7 - - W 1014,1 18 0 0,0
15.02.2019 18:00:00 9,9 4,2 - - 11 6 - - WNW 1014,6 24 0 0,0
15.02.2019 17:00:00 11,0 4,6 - - 21 11 - - WZW 1014,8 10 0 0,0
15.02.2019 16:00:00 11,6 5,0 - - 21 11 - - ZW 1015,0 10 54 0,0
15.02.2019 15:00:00 12,6 5,0 - - 13 7 - - ZW 1015,6 10 60 0,0
15.02.2019 14:00:00 11,4 3,7 - - 9 5 - - W 1016,7 10 60 0,0
15.02.2019 13:00:00 10,3 3,1 - - 11 6 - - W 1017,9 28 60 0,0
15.02.2019 12:00:00 9,0 3,1 - - 16 9 - - WZW 1018,8 15 60 0,0
15.02.2019 11:00:00 7,2 2,3 - - 5 3 - - Z 1019,7 10 60 0,0
15.02.2019 10:00:00 5,4 2,0 - - 2 1 - - WNW 1020,2 16 60 0,0
15.02.2019 09:00:00 2,4 1,0 5,0 5,2 8 4 - - ZZW 1020,3 10 36 0,0
15.02.2019 08:00:00 1,7 0,6 - - 2 1 - - WNW 1020,6 10 0 0,0
15.02.2019 07:00:00 0,0 -0,6 - - 5 3 - - W 1020,9 7 0 0,0
15.02.2019 06:00:00 -0,9 -1,7 - - 5 3 - - WZW 1021,2 10 0 0,0
15.02.2019 05:00:00 2,5 0,6 - - 8 4 - - ZZW 1021,6 10 0 0,0
15.02.2019 04:00:00 1,3 0,7 - - 5 3 - - W 1022,0 13 0 0,0
15.02.2019 03:00:00 1,3 0,2 - - 9 5 - - WZW 1022,7 15 0 0,0
15.02.2019 02:00:00 1,5 0,5 - - 5 3 - - ZW 1023,3 12 0 0,0
15.02.2019 01:00:00 3,0 1,8 - - 8 4 - - ZW 1023,9 14 0 0,0
15.02.2019 00:00:00 4,0 3,0 - - 5 3 55 30 WZW 1024,1 10 - 0,0
14.02.2019 23:00:00 3,6 2,4 - - 13 7 - - W 1024,3 10 0 0,0
14.02.2019 22:00:00 3,9 2,8 - - 15 8 - - ZW 1024,4 12 0 0,0
14.02.2019 21:00:00 6,6 4,2 - - 13 7 - - WNW 1024,4 10 0 0,0
14.02.2019 20:00:00 5,2 3,5 - - 9 5 - - W 1025,0 15 0 0,0
14.02.2019 19:00:00 6,5 4,7 - - 13 7 - - W 1025,1 17 0 0,0
14.02.2019 18:00:00 7,6 5,4 - - 11 6 - - ZW 1025,0 17 0 0,0
14.02.2019 17:00:00 9,1 5,5 - - 13 7 - - WZW 1024,8 18 0 0,0
14.02.2019 16:00:00 10,0 6,0 - - 21 11 - - WZW 1024,9 16 0 0,0
14.02.2019 15:00:00 10,3 6,1 - - 21 11 - - WZW 1025,0 10 0 0,0
14.02.2019 14:00:00 10,2 6,4 - - 21 11 - - WZW 1025,4 17 0 0,0
14.02.2019 13:00:00 10,8 6,9 - - 24 13 - - WZW 1025,7 10 0 0,0
14.02.2019 12:00:00 10,6 6,7 - - 18 10 - - WZW 1026,1 10 12 0,0
14.02.2019 11:00:00 10,3 6,8 - - 22 12 - - WZW 1026,1 20 12 0,0
14.02.2019 10:00:00 9,7 6,6 - - 15 8 - - WZW 1026,0 14 0 0,0
14.02.2019 09:00:00 9,2 6,8 4,7 5,0 13 7 - - W 1025,4 16 0 0,0
14.02.2019 08:00:00 8,7 6,7 - - 22 12 - - WZW 1024,8 16 0 0,0
14.02.2019 07:00:00 8,9 7,1 - - 28 15 - - WZW 1024,3 10 0 0,0
14.02.2019 06:00:00 8,9 7,0 - - 26 14 - - ZW 1023,9 10 0 0,0
14.02.2019 05:00:00 8,7 6,9 - - 16 9 - - WZW 1023,8 10 0 0,0
14.02.2019 04:00:00 9,1 6,7 - - 29 16 - - WZW 1023,4 10 0 0,0
14.02.2019 03:00:00 9,7 6,4 - - 29 16 - - W 1023,0 10 0 0,0
14.02.2019 02:00:00 9,4 5,8 - - 22 12 - - W 1022,5 18 0 0,0
14.02.2019 01:00:00 8,7 5,6 - - 18 10 - - W 1022,6 16 0 0,0
14.02.2019 00:00:00 8,8 5,4 - - 28 15 46 25 W 1022,4 10 - 0,0
13.02.2019 23:00:00 8,8 5,4 - - 29 16 48 26 W 1022,1 16 0 0,0
13.02.2019 22:00:00 9,2 5,9 - - 35 19 55 30 W 1021,8 17 0 0,0
13.02.2019 21:00:00 9,3 5,9 - - 37 20 46 25 WZW 1021,3 19 0 0,0
13.02.2019 20:00:00 9,6 6,4 - - 28 15 - - WZW 1021,4 10 0 0,0
13.02.2019 19:00:00 9,7 6,5 - - 29 16 48 26 WZW 1021,4 20 0 0,0
13.02.2019 18:00:00 9,6 6,5 - - 35 19 46 25 ZW 1021,7 20 0 0,0
13.02.2019 17:00:00 9,7 6,7 - - 28 15 - - ZW 1022,5 10 0 0,0
13.02.2019 16:00:00 10,3 7,0 - - 16 9 - - ZZW 1022,5 20 0 0,0
13.02.2019 15:00:00 10,8 6,9 - - 24 13 - - WZW 1021,9 10 0 0,0
13.02.2019 14:00:00 10,5 7,4 - - 18 10 - - ZW 1022,0 26 0 0,0
13.02.2019 13:00:00 10,7 7,0 - - 29 16 - - ZW 1021,6 23 24 0,0
13.02.2019 12:00:00 10,9 7,4 - - 29 16 - - WZW 1022,2 30 0 0,0
13.02.2019 11:00:00 10,6 7,6 - - 29 16 - - WZW 1022,0 10 0 0,0
13.02.2019 10:00:00 10,1 7,5 - - 24 13 - - ZW 1021,7 45 0 0,0
13.02.2019 09:00:00 9,6 7,4 4,2 5,0 26 14 - - ZW 1021,3 10 0 0,0
13.02.2019 08:00:00 9,4 7,4 - - 21 11 - - WZW 1021,5 35 0 0,0
13.02.2019 07:00:00 9,6 7,2 - - 26 14 - - ZW 1021,4 10 0 0,0
13.02.2019 06:00:00 9,3 7,3 - - 31 17 - - WZW 1021,7 10 0 0,0
13.02.2019 05:00:00 7,6 6,8 - - 2 1 - - NO 1022,3 15 0 0,0
13.02.2019 04:00:00 8,1 6,9 - - 9 5 - - WZW 1022,8 6 0 0,0
13.02.2019 03:00:00 6,8 6,4 - - 8 4 - - W 1023,5 6 0 0,0
13.02.2019 02:00:00 7,3 6,6 - - 4 2 - - NNO 1024,1 8 0 0,0
13.02.2019 01:00:00 6,5 5,4 - - 13 7 - - W 1024,7 10 0 0,0
13.02.2019 00:00:00 7,2 6,0 - - 18 10 - - WZW 1024,4 15 - 0,0
12.02.2019 23:00:00 8,1 5,5 - - 24 13 - - W 1023,5 18 0 0,0
12.02.2019 22:00:00 6,9 4,9 - - 21 11 - - WZW 1023,4 16 0 0,0
12.02.2019 21:00:00 7,5 5,7 - - 24 13 - - W 1022,8 22 0 0,0
12.02.2019 20:00:00 8,4 6,3 - - 24 13 - - W 1022,5 10 0 0,0
12.02.2019 19:00:00 9,2 7,0 - - 28 15 46 25 WZW 1022,2 10 0 0,0
12.02.2019 18:00:00 9,8 7,1 - - 34 18 48 26 WZW 1021,3 50 0 0,0
12.02.2019 17:00:00 10,3 7,6 - - 34 18 63 34 W 1021,1 10 24 0,0
12.02.2019 16:00:00 10,9 8,1 - - 44 24 68 37 W 1020,5 40 54 0,0
12.02.2019 15:00:00 11,5 8,4 - - 39 21 61 33 W 1020,1 40 24 0,0
12.02.2019 14:00:00 11,1 8,0 - - 41 22 57 31 W 1020,1 30 12 0,0
12.02.2019 13:00:00 11,0 7,8 - - 31 17 50 27 W 1019,9 10 0 0,0
12.02.2019 12:00:00 10,0 7,5 - - 31 17 - - WZW 1019,8 25 0 0,0
12.02.2019 11:00:00 9,2 7,2 - - 29 16 - - WZW 1020,0 30 0 0,0
12.02.2019 10:00:00 8,8 7,0 - - 31 17 - - WZW 1020,6 10 0 0,0
12.02.2019 09:00:00 7,9 6,8 3,7 4,9 26 14 - - WZW 1021,2 10 0 0,0
12.02.2019 08:00:00 7,0 6,1 - - 22 12 - - WZW 1021,2 10 0 0,0
12.02.2019 07:00:00 7,4 5,2 - - 28 15 - - WZW 1021,1 27 0 0,0
12.02.2019 06:00:00 6,8 4,7 - - 26 14 - - WZW 1021,5 35 0 0,0
12.02.2019 05:00:00 4,9 3,4 - - 5 3 - - W 1022,4 24 0 0,0
12.02.2019 04:00:00 5,7 3,8 - - 15 8 - - ZW 1023,0 10 0 0,0
12.02.2019 03:00:00 5,0 3,3 - - 5 3 - - WNW 1024,1 10 0 0,0
12.02.2019 02:00:00 4,4 2,9 - - 9 5 - - WNW 1024,3 30 0 0,0
12.02.2019 01:00:00 3,5 2,5 - - 13 7 - - W 1024,7 30 0 0,0
12.02.2019 00:00:00 3,9 3,2 - - 9 5 - - W 1025,2 10 - 0,2
11.02.2019 23:00:00 4,5 3,4 - - 11 6 - - W 1025,8 10 0 0,0
11.02.2019 22:00:00 4,0 2,9 - - 11 6 - - W 1026,0 15 0 0,0
11.02.2019 21:00:00 3,1 1,6 - - 13 7 - - W 1025,8 50 0 0,0
11.02.2019 20:00:00 2,9 1,2 - - 4 2 - - ZW 1026,0 50 0 0,0
11.02.2019 19:00:00 2,6 0,4 - - 8 4 - - WZW 1026,0 10 0 0,0
11.02.2019 18:00:00 3,9 1,4 - - 11 6 - - WZW 1025,6 50 0 0,0
11.02.2019 17:00:00 5,1 1,7 - - 11 6 - - WZW 1025,5 50 0 0,0
11.02.2019 16:00:00 6,1 1,6 - - 15 8 - - WZW 1025,0 40 0 0,0
11.02.2019 15:00:00 7,2 1,1 - - 18 10 - - W 1024,9 40 18 0,0
11.02.2019 14:00:00 6,6 0,7 - - 8 4 - - WZW 1025,0 35 30 0,0
11.02.2019 13:00:00 6,7 0,1 - - 8 4 - - W 1024,8 40 60 0,0
11.02.2019 12:00:00 5,8 -0,5 - - 9 5 - - WNW 1024,5 10 60 0,0

tt = temperatuur
td = dauwpunt
tt -20cm = temperatuur -20cm
tt -100cm = temperatuur -100cm
ff = windsnelheid
fx = windstoten
dd = windrichting
ppp = luchtdruk
vv = zicht
sd = Zonneschijnduur
rr = neerslag

Weerstations in de omgeving